User: anonymous   Login
Location: Unspecified
(0.0000°N, 0.0000°E)
Time: 07:17:45
(UTC+01:00)
Language:

Meteor 1-31 Rocket - Orbit

View from above orbital plane
View from above orbital plane
View from above satellite
View from above satellite

Ground track
Ground track

The orbit data is extracted from the following two-line orbital elements,

1 12586U 81065B   17080.91677345 +.00000354 +00000-0 +25644-4 0  9997
2 12586 097.4894 064.4606 0020211 136.7512 223.5309 15.09862007939162
Epoch (UTC): 21 March 2017 22:00:09
Eccentricity: 0.0020211
inclination: 97.4894°
perigee height: 522 km
apogee height: 550 km
right ascension of ascending node: 64.4606°
argument of perigee: 136.7512°
revolutions per day: 15.09862007
mean anomaly at epoch: 223.5309°
orbit number at epoch: 93916

The dashed part of the orbit path shows where the satellite is in the earth's shadow,  

DLR